Home > Time Zones > World Clock > Weather > Iran > Kerman > Past weeks

Flag for Iran Weather past 2 weeks in Kerman, Iran

Now
86 °F

Partly sunny.


Feels Like: 83 °F
Forecast: 65 / 92 °F
Wind: 12 mph from West

Location: Kerman Airport

Current Time: Sep 16, 2014 at 6:59:46 PM

Latest Report: Sep 16, 2014 at 6:30 PM


Visibility: N/A

Pressure: 29.95 "Hg

Humidity: 11%

Dew point: 25 °F

Location of KermanLocation

Historic Weather in Kerman — Graph

°F

Kerman temperature yesterday

Maximum temperature yesterday: 91 °F (at 2:30 PM)
Minimum temperature yesterday: 50 °F (at 6:30 AM)
Average temperature yesterday: 74 °F

Past Weeks' High & Low Weather Summary

 TemperatureHumidityPressure
High95 °F (Sep 7, 4:30 PM)33% (Sep 5, 5:30 AM)30.15 "Hg (Sep 5, 5:30 AM)
Low50 °F (Sep 2, 6:30 AM)3% (Sep 2, 3:00 PM)29.77 "Hg (Sep 16, 6:00 PM)
Average78 °F12%30.04 "Hg
* Reported Sep 1 5:30 PM — Sep 16 6:00 PM, Kerman, Weather by CustomWeather, © 2014

Note: Actual official high and low records may vary slightly from our data, if they occured in-between our weather recording intervals... More about our weather records

Advertising

Kerman weather history for previous 24 hours

 ConditionsComfort  
Time TempWeatherWind HumidityBarometerVisibility
6:00 PM
Sep 16
88 °FPartly sunny.12 mph9%29.77 "HgN/A
5:30 PM90 °FPartly sunny.12 mph9%29.95 "HgN/A
5:00 PM91 °FPartly sunny.7 mph8%29.95 "HgN/A
4:00 PM90 °FPartly sunny.7 mph9%29.95 "HgN/A
3:30 PM90 °FPartly sunny.12 mph9%29.95 "HgN/A
3:00 PM93 °FScattered clouds.9 mph8%29.95 "HgN/A
2:30 PM93 °FScattered clouds.12 mph8%29.95 "HgN/A
2:00 PM90 °FPassing clouds.12 mph8%29.98 "HgN/A
1:30 PM90 °FPassing clouds.5 mph7%30.01 "HgN/A
1:00 PM90 °FPassing clouds.7 mph6%30.01 "HgN/A
12:30 PM90 °FPassing clouds.9 mph10%30.01 "HgN/A
12:00 PM88 °FPassing clouds.7 mph13%30.04 "HgN/A
11:30 AM88 °FPassing clouds.9 mph15%30.04 "HgN/A
11:00 AM86 °FSunny.No wind14%30.07 "Hg10 mi
10:30 AM82 °FSunny.7 mph15%30.07 "Hg10 mi
10:00 AM81 °FSunny.7 mph15%30.07 "Hg10 mi
9:30 AM79 °FSunny.7 mph16%30.07 "Hg10 mi
9:00 AM75 °FSunny.5 mph18%30.07 "Hg10 mi
8:30 AM70 °FSunny.7 mph20%30.07 "Hg10 mi
8:00 AM59 °FSunny.7 mph23%30.07 "Hg10 mi
7:30 AM59 °FClear.7 mph23%30.07 "Hg10 mi
6:30 AM55 °FClear.7 mph24%30.04 "Hg10 mi
5:30 AM57 °FClear.5 mph18%30.01 "Hg10 mi
4:30 AM57 °FClear.5 mph18%30.01 "Hg10 mi
3:30 AM57 °FClear.5 mph17%30.01 "Hg10 mi
2:30 AM57 °FClear.7 mph17%30.01 "Hg10 mi
1:30 AM63 °FClear.5 mph15%30.01 "Hg10 mi
12:30 AM64 °FClear.5 mph14%30.04 "Hg10 mi
11:30 PM
Sep 15
70 °FClear.7 mph9%30.04 "Hg10 mi
10:30 PM75 °FClear.9 mph7%30.04 "Hg10 mi
9:30 PM77 °FClear.7 mph6%30.04 "Hg10 mi
8:30 PM79 °FClear.12 mph5%30.01 "Hg10 mi
7:30 PM82 °FPassing clouds.12 mph5%29.98 "HgN/A
6:30 PM86 °FPassing clouds.12 mph4%29.98 "HgN/A
Weather by CustomWeather, © 2014

See weather overviewHow to use our weather pages